Location: Unspecified
(33.6682°S, 0.0000°E)
Time: 11:22:53
(UTC+00:00)

Vanguard 2 Rocket - Pass Details

Date: 21 June 2019
Orbit: 554 x 3326 km, 32.9° (Epoch: 20 July)

Event Time Altitude Azimuth Distance (km) Brightness Sun altitude
Rises 12:20:26 0° 267° (W) 5,231 10.8 32.7°
Reaches altitude 10° 12:24:36 10° 267° (W) 3,774 10.2 32.6°
Maximum altitude 12:33:29 82° 352° (N) 1,010 7.9 32.4°
Drops below altitude 10° 12:38:38 10° 80° (E) 2,250 9.0 32.2°
Sets 12:40:35 0° 81° (E) 3,009 9.6 32.2°
